Flag for Canada Weather past 2 weeks in Trois-Rivieres, Quebec, Canada

Now
76 °F

Mild.


Feels Like: 76 °F
Forecast: 68 / 80 °F
Wind: 1 mph from Southeast

Location: Trois Rivieres

Current Time: Jul 30, 2015 at 12:26:47 AM

Latest Report: Jul 29, 2015 at 11:00 PM


Visibility: N/A

Pressure: 29.80 "Hg

Humidity: 92%

Dew point: 73 °F

Location of Trois-RivieresLocation

Historic Weather in Trois-Rivieres — Graph

°F

Trois-Rivieres temperature yesterday

Maximum temperature yesterday: 85 °F (at 5:00 PM)
Minimum temperature yesterday: 66 °F (at 6:00 AM)
Average temperature yesterday: 74 °F

Past Weeks' High & Low Weather Summary

 TemperatureHumidityPressure
High85 °F (Jul 29, 5:00 PM)100% (Jul 18, 5:00 AM)30.10 "Hg (Jul 18, 5:00 AM)
Low51 °F (Jul 16, 5:00 AM)43% (Jul 16, 1:00 PM)29.48 "Hg (Jul 21, 3:00 PM)
Average67 °F80%29.82 "Hg
* Reported Jul 14 11:00 PM — Jul 29 11:00 PM, Trois-Rivieres, Weather by CustomWeather, © 2015

Note: Actual official high and low records may vary slightly from our data, if they occured in-between our weather recording intervals... More about our weather records

Advertising

Trois-Rivieres weather history for previous 24 hours

 ConditionsComfort  
Time TempWeatherWind HumidityBarometerVisibility
11:00 PM
Wed, Jul 29
76 °FMild.1 mph92%29.80 "HgN/A
10:00 PM77 °FMild.1 mph89%29.81 "HgN/A
9:00 PM77 °FWarm.1 mph87%29.81 "HgN/A
8:00 PM79 °FWarm.2 mph81%29.81 "HgN/A
7:00 PM80 °FWarm.5 mph80%29.80 "HgN/A
6:00 PM83 °FWarm.3 mph65%29.82 "HgN/A
5:00 PM85 °FWarm.6 mph65%29.84 "HgN/A
4:00 PM83 °FWarm.6 mph66%29.84 "HgN/A
3:00 PM81 °FWarm.6 mph68%29.85 "HgN/A
2:00 PM77 °FMild.6 mph84%29.86 "HgN/A
1:00 PM75 °FMild.7 mph87%29.88 "HgN/A
12:00 PM76 °FMild.1 mph75%29.90 "HgN/A
11:00 AM72 °FMild.6 mph86%29.91 "HgN/A
10:00 AM73 °FMild.6 mph84%29.91 "HgN/A
9:00 AM70 °FMild.6 mph87%29.92 "HgN/A
8:00 AM68 °FMild.5 mph92%29.91 "HgN/A
7:00 AM67 °FMild.2 mph92%29.91 "HgN/A
6:00 AM66 °FMild.3 mph96%29.92 "HgN/A
5:00 AM67 °FMild.3 mph95%29.90 "HgN/A
4:00 AM69 °FMild.2 mph96%29.89 "HgN/A
3:00 AM69 °FMild.No wind93%29.89 "HgN/A
2:00 AM71 °FMild.5 mph91%29.89 "HgN/A
1:00 AM71 °FMild.3 mph87%29.90 "HgN/A
12:00 AM72 °FMild.1 mph89%29.89 "HgN/A
Weather by CustomWeather, © 2015

See weather overviewHow to use our weather pages